Temp
8 8 8 8 7 7 5 6 5 9 8 8 5 3 2 1 1 0 -1 -2 -4 -5 -5 -5 -4 -4 -4 -2 -1 1 4 6 6 8 8 8 10 10 10 11 11 12 12 12
6 8 8 7 7 6 6 6 8 8 8 5 3 2 2 -0 0 -1 -1 -3 -4 -5 -6 -5 -5 -4 -3 -3 -2 -1 1 2 4 7 9 8 9 9 10 10 10 12 12 12
7 7 7 5 6 5 4 6 5 4 3 2 2 2 0 -1 -1 -2 -2 -3 -4 -5 -6 -6 -5 -5 -4 -4 -1 1 0 -0 1 7 7 6 8 9 10 10 10 10 11 11
7 6 5 6 8 8 6 4 4 3 2 0 1 1 -1 -1 -2 -2 -3 -4 -4 -5 -6 -6 -6 -6 -4 -4 -3 -4 -2 -1 0 1 2 4 5 6 8 9 9 10 10 10
6 7 7 5 5 6 6 6 4 2 1 0 0 1 -0 -2 -3 -3 -3 -4 -5 -5 -6 -6 -6 -6 -5 -3 -2 -1 -1 -1 -1 0 1 2 3 4 6 7 8 8 9 9
6 6 6 7 6 4 5 5 3 2 1 -0 0 2 3 -3 -3 -4 -4 -5 -5 -5 -6 -6 -7 -6 -6 -6 -4 -4 -3 -2 -1 -0 0 1 1 2 3 4 5 6 7 8
6 6 6 6 4 3 5 5 2 -0 -0 -0 -1 -1 -2 -3 -4 -4 -5 -5 -6 -6 -6 -7 -7 -7 -6 -6 -6 -5 -4 -3 -1 -0 0 0 1 1 2 2 3 4 5 6
5 5 5 4 4 5 4 2 1 0 -0 -1 -2 -3 -3 -3 -4 -5 -5 -6 -6 -6 -7 -7 -8 -7 -7 -7 -7 -7 -6 -5 -3 -2 -1 0 0 1 1 2 2 2 3 4
6 6 5 4 4 2 2 2 1 0 -0 -2 -3 -4 -3 -4 -4 -5 -6 -7 -7 -7 -7 -8 -8 -8 -7 -8 -6 -7 -6 -6 -5 -4 -3 -2 -1 -1 0 0 1 1 2 2
5 4 5 3 2 1 1 1 -0 -1 -1 -2 -4 -4 -4 -5 -5 -6 -7 -8 -8 -7 -8 -8 -8 -8 -8 -8 -7 -7 -7 -6 -7 -5 -4 -4 -3 -2 -1 -1 -1 -0 0 0
5 5 3 2 2 1 -0 -1 -1 -3 -2 -3 -4 -5 -5 -6 -7 -7 -8 -8 -9 -9 -9 -9 -9 -9 -9 -9 -8 -7 -6 -6 -6 -7 -7 -7 -5 -5 -4 -4 -3 -2 -3 -2
4 4 4 3 1 -1 -1 -1 -3 -3 -3 -4 -5 -6 -6 -7 -8 -8 -9 -9 -9 -9 -9 -9 -9 -9 -9 -7 -9 -8 -7 -7 -6 -7 -7 -7 -7 -8 -6 -6 -5 -4 -4 -3
1 0 0 -0 -1 -2 -3 -4 -5 -4 -5 -6 -7 -7 -7 -8 -9 -9 -9 -9 -9 -9 -9 -9 -8 -9 -8 -8 -7 -7 -7 -7 -7 -6 -5 -5 -5 -5 -8 -7 -6 -5 -4 -4
-1 -1 -2 -2 -3 -3 -4 -5 -5 -6 -6 -7 -8 -8 -8 -9 -9 -10 -9 -9 -9 -9 -9 -9 -9 -9 -9 -8 -8 -7 -7 -7 -7 -7 -6 -6 -6 -6 -6 -6 -6 -6 -5 -5
-1 -1 -2 -3 -4 -5 -5 -5 -6 -6 -7 -7 -8 -9 -9 -9 -10 -11 -10 -10 -10 -10 -9 -9 -9 -9 -9 -9 -9 -8 -8 -7 -8 -7 -7 -6 -6 -6 -7 -7 -6 -6 -7 -6
-3 -3 -3 -3 -4 -5 -6 -6 -6 -7 -8 -8 -9 -10 -10 -11 -11 -12 -10 -10 -10 -10 -10 -10 -10 -10 -10 -9 -9 -9 -9 -8 -8 -9 -8 -8 -7 -8 -8 -8 -8 -6 -6 -5
-2 -3 -3 -4 -5 -6 -7 -8 -9 -9 -9 -10 -11 -11 -11 -12 -12 -11 -11 -11 -11 -11 -11 -11 -10 -10 -10 -10 -10 -10 -10 -9 -9 -9 -9 -8 -8 -9 -9 -9 -9 -8 -7 -7
-4 -5 -5 -5 -6 -7 -9 -10 -10 -11 -11 -11 -11 -11 -11 -11 -11 -11 -11 -12 -12 -12 -11 -11 -11 -11 -10 -10 -10 -10 -10 -10 -10 -9 -9 -9 -9 -9 -9 -9 -10 -10 -9 -8
-6 -7 -8 -8 -9 -9 -10 -10 -10 -11 -11 -11 -11 -11 -12 -12 -12 -12 -12 -12 -14 -14 -12 -12 -11 -11 -11 -11 -10 -11 -11 -11 -11 -11 -10 -10 -10 -10 -10 -10 -10 -9 -9 -9
-8 -8 -8 -8 -9 -9 -10 -11 -11 -11 -12 -12 -12 -12 -13 -13 -13 -13 -14 -14 -14 -13 -13 -12 -12 -12 -11 -11 -11 -11 -11 -12 -12 -11 -11 -11 -10 -10 -11 -10 -10 -10 -10 -10
-8 -8 -9 -9 -10 -10 -11 -12 -12 -12 -12 -13 -13 -13 -13 -14 -14 -14 -15 -14 -15 -13 -13 -13 -12 -12 -12 -12 -12 -12 -12 -12 -12 -13 -12 -12 -12 -11 -11 -11 -11 -11 -11 -11
-8 -9 -9 -10 -11 -11 -12 -12 -12 -12 -13 -13 -13 -13 -14 -15 -15 -15 -15 -15 -16 -14 -15 -14 -13 -13 -13 -12 -12 -12 -12 -13 -13 -13 -13 -13 -13 -13 -13 -12 -12 -12 -12 -12
-9 -10 -10 -11 -11 -12 -12 -13 -13 -13 -13 -13 -14 -14 -15 -15 -15 -15 -15 -15 -16 -15 -16 -14 -14 -14 -14 -13 -13 -13 -13 -13 -14 -14 -14 -14 -15 -15 -15 -14 -14 -14 -14 -14
-10 -10 -11 -11 -12 -12 -13 -13 -13 -13 -14 -14 -14 -14 -15 -15 -16 -16 -17 -16 -15 -15 -15 -15 -15 -15 -14 -14 -14 -14 -14 -15 -15 -15 -15 -15 -15 -15 -16 -16 -16 -16 -15 -15
-11 -11 -11 -12 -12 -13 -13 -13 -13 -14 -14 -15 -15 -15 -15 -15 -16 -16 -16 -16 -15 -16 -16 -15 -15 -15 -15 -16 -15 -16 -16 -15 -15 -16 -16 -16 -16 -16 -16 -16 -16 -16 -16 -16
-11 -12 -12 -12 -12 -13 -13 -13 -13 -14 -14 -15 -15 -16 -16 -16 -16 -17 -17 -16 -16 -16 -16 -16 -16 -16 -16 -16 -17 -16 -17 -17 -17 -17 -17 -17 -17 -17 -17 -17 -17 -17 -17 -16
-12 -12 -12 -13 -13 -14 -14 -14 -14 -14 -15 -15 -15 -16 -16 -17 -16 -17 -16 -18 -18 -18 -18 -18 -17 -16 -17 -17 -17 -17 -17 -18 -17 -17 -17 -18 -18 -18 -18 -18 -17 -17 -17 -17
Height
1494 1495 1496 1497 1498 1501 1510 1505 1506 1485 1486 1486 1498 1499 1494 1490 1484 1477 1471 1465 1460 1452 1442 1430 1424 1418 1410 1400 1391 1386 1382 1379 1377 1378 1376 1379 1383 1384 1384 1387 1391 1394 1397 1399
1495 1493 1495 1495 1496 1500 1502 1499 1492 1488 1485 1498 1500 1499 1494 1491 1484 1478 1471 1467 1460 1453 1445 1435 1426 1418 1407 1403 1399 1396 1389 1384 1381 1381 1376 1380 1379 1378 1379 1386 1386 1388 1391 1395
1484 1490 1495 1498 1491 1497 1500 1497 1500 1500 1502 1504 1501 1498 1493 1491 1486 1480 1473 1465 1459 1453 1445 1435 1425 1420 1415 1408 1400 1393 1396 1393 1383 1373 1380 1375 1380 1380 1379 1382 1384 1390 1388 1392
1484 1494 1496 1484 1483 1486 1491 1497 1497 1501 1504 1505 1502 1499 1495 1492 1488 1481 1474 1467 1460 1455 1450 1443 1436 1428 1422 1418 1411 1411 1403 1395 1387 1390 1387 1382 1382 1381 1382 1381 1381 1382 1385 1387
1485 1478 1480 1490 1490 1489 1486 1487 1497 1502 1503 1502 1499 1493 1494 1491 1489 1484 1478 1471 1465 1460 1454 1447 1438 1430 1425 1420 1415 1406 1401 1396 1393 1391 1391 1388 1386 1383 1382 1382 1382 1382 1383 1386
1484 1482 1477 1476 1488 1491 1490 1482 1495 1499 1499 1499 1496 1489 1490 1492 1488 1483 1479 1472 1466 1461 1456 1450 1443 1436 1430 1426 1421 1417 1411 1405 1401 1399 1395 1392 1390 1388 1385 1383 1382 1382 1382 1384
1479 1478 1476 1483 1489 1490 1483 1488 1495 1497 1497 1496 1496 1496 1494 1492 1488 1483 1479 1473 1467 1463 1457 1452 1447 1442 1438 1430 1424 1422 1417 1412 1408 1404 1401 1398 1396 1393 1390 1387 1384 1383 1382 1383
1478 1480 1477 1486 1489 1485 1487 1490 1493 1494 1495 1494 1493 1493 1492 1490 1487 1482 1478 1474 1469 1465 1460 1456 1449 1445 1441 1437 1431 1427 1423 1418 1414 1410 1405 1402 1399 1397 1393 1390 1387 1387 1387 1385
1471 1470 1481 1484 1485 1488 1488 1490 1492 1493 1493 1492 1491 1491 1490 1488 1486 1483 1478 1474 1470 1465 1461 1457 1452 1448 1445 1440 1435 1432 1426 1422 1418 1413 1408 1405 1403 1399 1394 1391 1391 1390 1387 1386
1474 1481 1480 1484 1486 1488 1489 1491 1492 1493 1493 1491 1490 1489 1488 1486 1484 1482 1478 1474 1470 1468 1463 1458 1453 1449 1445 1439 1434 1431 1427 1423 1420 1414 1410 1406 1403 1400 1398 1394 1394 1391 1390 1390
1472 1477 1481 1483 1485 1487 1489 1490 1491 1492 1492 1490 1489 1488 1487 1485 1482 1480 1477 1474 1471 1466 1463 1458 1454 1450 1445 1441 1437 1433 1427 1423 1419 1416 1413 1409 1406 1403 1400 1400 1398 1395 1395 1396
1469 1476 1478 1480 1483 1486 1488 1490 1491 1491 1490 1489 1487 1486 1485 1484 1482 1479 1477 1474 1470 1466 1463 1459 1456 1452 1447 1442 1438 1434 1430 1426 1423 1419 1417 1414 1411 1409 1407 1404 1402 1401 1401 1399
1475 1478 1479 1481 1484 1486 1488 1489 1489 1488 1487 1488 1486 1485 1484 1483 1480 1477 1475 1473 1470 1466 1463 1460 1457 1453 1449 1445 1441 1436 1432 1429 1426 1422 1419 1417 1414 1412 1411 1410 1408 1406 1404 1402
1475 1477 1481 1483 1484 1486 1487 1487 1487 1488 1488 1487 1486 1484 1483 1482 1480 1477 1474 1472 1469 1466 1464 1461 1458 1454 1451 1447 1443 1440 1436 1434 1431 1429 1427 1424 1420 1418 1416 1415 1413 1411 1409 1407
1476 1478 1479 1481 1483 1485 1486 1487 1488 1487 1487 1486 1485 1484 1483 1482 1480 1477 1474 1471 1469 1467 1465 1462 1458 1456 1453 1450 1447 1444 1441 1440 1437 1434 1431 1429 1425 1424 1422 1421 1419 1416 1416 1413
1477 1479 1481 1483 1484 1485 1486 1486 1487 1486 1486 1486 1484 1483 1482 1481 1479 1477 1474 1472 1469 1466 1463 1461 1459 1458 1455 1452 1449 1447 1445 1442 1440 1437 1435 1432 1431 1428 1426 1424 1423 1422 1419 1417
1477 1479 1481 1483 1485 1486 1486 1485 1485 1485 1485 1485 1483 1482 1481 1480 1478 1477 1474 1471 1469 1467 1465 1462 1460 1458 1455 1452 1450 1448 1446 1443 1441 1440 1438 1436 1434 1432 1430 1428 1426 1426 1424 1422
1476 1478 1480 1483 1484 1485 1485 1485 1484 1484 1484 1483 1482 1481 1480 1479 1478 1476 1474 1471 1470 1468 1465 1462 1460 1457 1455 1453 1451 1449 1447 1445 1444 1442 1441 1438 1436 1434 1432 1431 1430 1428 1428 1427
1476 1478 1480 1481 1483 1484 1484 1483 1483 1483 1483 1483 1483 1482 1481 1480 1479 1477 1474 1472 1470 1468 1465 1462 1460 1457 1456 1454 1452 1451 1449 1448 1446 1444 1442 1440 1439 1436 1434 1434 1432 1431 1430 1428
1476 1478 1479 1480 1481 1482 1482 1483 1484 1484 1484 1484 1484 1483 1482 1481 1479 1477 1475 1473 1470 1468 1465 1463 1461 1459 1457 1455 1454 1453 1451 1449 1447 1445 1443 1442 1440 1437 1436 1435 1433 1432 1432 1431
1477 1478 1479 1481 1481 1482 1483 1484 1484 1485 1485 1485 1484 1483 1482 1481 1479 1477 1477 1476 1472 1469 1467 1465 1462 1460 1458 1457 1456 1455 1453 1451 1449 1447 1445 1444 1442 1438 1436 1435 1435 1435 1434 1434
1477 1479 1480 1481 1482 1483 1484 1485 1485 1485 1485 1485 1485 1484 1483 1483 1481 1479 1476 1475 1473 1470 1468 1465 1463 1461 1460 1459 1457 1456 1454 1452 1450 1448 1448 1446 1443 1441 1439 1438 1437 1437 1436 1436
1478 1479 1481 1483 1484 1485 1486 1487 1487 1487 1487 1486 1486 1485 1485 1484 1482 1482 1480 1476 1474 1471 1469 1467 1465 1463 1462 1460 1458 1457 1455 1454 1453 1452 1450 1448 1446 1444 1442 1441 1440 1439 1438 1438
1478 1480 1482 1484 1485 1487 1487 1488 1488 1488 1488 1487 1487 1486 1486 1486 1484 1482 1480 1477 1475 1473 1470 1468 1466 1464 1463 1461 1459 1458 1456 1455 1454 1452 1451 1449 1447 1445 1444 1443 1441 1440 1439 1439
1479 1481 1483 1484 1486 1487 1487 1488 1488 1488 1488 1488 1487 1486 1485 1484 1483 1481 1479 1477 1475 1473 1471 1469 1467 1465 1463 1461 1460 1459 1457 1455 1454 1452 1451 1449 1448 1446 1445 1443 1442 1441 1440 1439
1479 1482 1483 1484 1486 1487 1488 1488 1490 1489 1490 1489 1488 1487 1485 1484 1483 1481 1479 1477 1475 1473 1471 1470 1468 1466 1464 1462 1460 1459 1457 1456 1454 1453 1451 1450 1448 1447 1446 1444 1443 1442 1441 1440
1478 1480 1482 1483 1484 1485 1486 1487 1488 1488 1488 1489 1488 1486 1485 1484 1482 1482 1480 1478 1476 1474 1472 1470 1468 1466 1464 1463 1461 1459 1457 1456 1454 1453 1451 1450 1449 1447 1446 1445 1444 1443 1441 1441
Wind_Speed
5 4 6 8 10 11 11 13 6 12 16 12 14 16 22 23 26 32 31 32 33 38 39 42 42 41 40 37 35 30 23 16 18 9 5 3 2 4 4 12 13 14 15 17
5 8 10 12 11 11 14 13 15 16 14 10 16 19 22 19 28 29 31 31 31 36 35 37 38 39 40 37 34 29 26 23 17 4 1 4 6 7 11 14 11 14 16 19
3 6 5 8 17 14 4 7 7 6 6 14 16 19 16 17 26 27 29 31 32 32 34 35 37 36 35 34 31 28 22 24 24 18 11 12 6 10 9 13 10 16 15 15
5 6 7 3 3 10 8 7 6 7 7 9 14 20 5 16 21 25 27 29 29 29 27 28 29 30 30 27 26 22 23 26 24 20 16 14 10 8 8 9 10 10 11 15
4 10 2 4 8 6 4 1 5 5 7 10 14 18 8 20 19 20 22 23 23 23 23 25 27 29 28 28 27 28 28 28 25 22 18 14 11 11 9 7 7 10 10 12
5 4 5 5 8 2 5 4 6 2 6 7 11 6 7 19 18 18 19 20 22 22 22 22 25 24 24 25 25 25 24 24 22 20 18 18 15 12 9 9 7 8 8 8
7 6 2 5 5 7 5 5 3 1 4 5 4 6 13 15 16 16 18 19 20 20 21 22 22 21 21 22 24 23 21 20 19 17 16 15 15 12 11 9 7 6 6 4
7 8 8 10 8 4 5 5 3 2 4 5 5 8 10 12 14 16 17 18 18 18 19 20 22 21 20 19 19 18 18 19 18 17 16 15 13 13 12 11 11 9 7 6
6 1 10 8 1 5 3 3 1 2 4 4 4 7 9 11 12 13 15 16 16 17 18 19 20 20 20 20 18 16 15 16 17 18 18 16 14 14 15 15 15 14 13 11
6 5 5 5 6 5 4 3 1 2 3 4 5 6 8 9 11 12 13 15 15 14 16 18 19 19 19 20 19 16 15 15 15 17 18 20 18 18 16 16 17 16 15 15
2 6 5 5 6 6 4 2 2 1 3 5 5 5 8 8 9 11 12 14 14 14 15 17 18 19 19 18 19 16 16 16 16 16 16 16 21 22 19 19 17 15 15 14
2 5 3 3 8 6 4 3 2 1 3 6 5 4 7 7 7 9 11 13 13 15 15 16 16 17 19 19 18 16 15 16 17 15 15 15 15 15 19 18 16 15 13 12
5 6 8 10 9 6 5 5 2 2 4 5 5 5 5 5 6 9 10 13 14 15 15 15 16 17 17 18 18 16 17 14 14 15 17 17 17 15 14 17 17 15 13 12
10 11 8 7 5 7 6 3 0 3 4 5 5 5 5 5 8 9 12 13 13 14 13 13 13 15 16 16 16 15 14 14 14 14 14 15 16 17 16 15 16 18 19 17
8 5 7 9 9 6 4 2 1 3 4 5 5 5 5 4 5 7 11 12 13 13 12 12 12 13 13 13 14 13 12 11 11 11 13 14 14 14 14 14 15 15 15 18
11 10 10 9 7 5 2 1 1 2 3 3 3 4 4 4 4 7 10 13 14 15 14 13 11 11 12 12 11 10 9 9 9 9 10 11 11 12 12 13 14 15 16 16
13 9 8 6 4 2 2 2 2 2 2 2 3 3 3 3 5 8 10 12 12 12 13 12 11 10 11 12 11 10 9 8 7 7 8 9 10 10 11 11 12 13 15 15
7 7 6 6 5 5 4 3 3 3 2 1 3 3 3 4 7 10 11 11 9 9 10 10 11 10 9 10 11 11 10 8 7 6 7 8 9 9 10 10 10 10 11 11
8 7 7 7 6 6 5 3 2 2 3 3 3 4 5 6 8 9 11 11 11 11 12 11 11 10 9 9 9 9 9 8 7 7 7 7 7 8 8 8 9 9 8 9
9 8 7 6 6 5 5 5 6 5 6 5 4 4 5 6 8 9 9 11 12 13 12 12 11 9 8 7 9 8 7 7 7 7 7 6 6 7 7 7 7 7 7 7
9 8 8 8 9 9 9 9 7 7 6 5 4 5 7 8 9 10 9 8 12 11 11 10 10 10 9 8 7 7 7 7 7 7 7 7 7 7 7 6 6 5 5 5
10 10 10 11 11 12 12 11 10 9 8 6 6 6 7 8 11 13 14 11 11 12 12 12 11 10 9 7 6 6 6 6 6 7 7 7 7 7 6 5 4 3 2 1
13 13 12 12 12 11 10 9 9 8 8 8 7 7 6 6 7 6 6 12 11 12 11 11 10 9 8 6 6 5 5 5 5 5 5 5 5 6 6 5 5 3 2 0
15 14 13 12 10 8 7 6 6 5 5 6 6 6 5 4 6 7 7 9 11 11 12 11 10 9 7 7 7 6 5 5 5 5 5 5 6 6 5 5 5 4 3 2
14 14 11 9 7 5 7 5 4 3 4 3 5 6 6 6 4 6 8 9 10 10 10 10 10 9 8 7 7 6 6 6 5 5 5 5 5 5 5 5 5 4 4 3
15 11 9 10 8 7 7 5 5 5 3 2 3 4 5 5 6 6 8 9 9 10 10 10 11 10 9 8 7 6 6 5 5 5 5 5 5 4 4 4 4 4 3 2
15 12 11 10 8 8 7 6 6 5 5 4 3 3 4 4 5 6 6 6 7 9 9 10 11 11 9 9 8 7 6 6 6 5 5 5 5 5 5 5 4 4 4 2
Wind_Direction
234 198 203 213 204 214 212 236 253 292 307 344 343 340 344 338 342 346 349 349 352 353 356 359 4 4 11 22 30 37 47 56 56 62 96 174 244 237 220 185 191 201 204 199
233 219 227 242 241 228 226 250 266 272 284 20 338 337 346 346 346 345 346 348 349 350 353 355 1 6 14 15 21 30 39 41 51 66 111 112 182 204 262 267 231 214 222 229
197 177 192 251 234 209 176 221 255 280 356 341 327 336 351 358 347 345 345 347 350 351 351 353 357 4 10 13 18 29 21 27 41 73 35 59 179 217 221 244 223 220 212 230
160 169 225 82 98 184 210 237 252 266 297 323 319 320 357 4 349 344 347 348 349 349 351 351 352 359 7 13 18 18 22 24 36 46 47 60 69 97 164 191 203 199 194 199
206 210 79 187 201 200 220 206 191 255 287 318 325 314 136 3 352 346 345 348 349 348 350 352 354 358 2 15 19 22 21 23 26 30 31 37 46 64 90 124 169 172 181 207
182 233 228 94 139 148 166 210 170 267 315 328 338 340 348 343 348 350 348 350 353 352 354 357 358 358 360 7 17 19 18 22 24 26 26 28 34 40 60 72 95 114 144 175
208 239 182 149 147 158 231 81 147 116 338 345 351 326 321 335 344 354 351 352 355 358 359 358 359 1 2 3 10 12 19 24 28 31 33 31 33 40 48 57 72 79 86 99
218 230 236 151 142 244 71 113 116 47 354 334 331 326 333 339 344 352 355 353 358 359 1 360 3 2 4 7 8 6 16 25 30 37 41 43 42 46 54 59 64 67 67 68
207 142 119 161 97 136 116 133 141 8 349 336 338 332 336 343 347 351 358 355 357 359 359 1 7 9 5 5 12 9 17 24 26 38 46 51 54 57 60 62 62 59 58 56
181 157 175 157 152 153 149 146 144 358 352 352 336 334 336 346 352 351 358 360 359 359 0 2 4 3 1 0 8 9 16 22 23 34 40 46 50 51 54 58 55 53 53 51
167 162 152 178 185 173 158 144 152 63 15 359 344 334 343 345 355 354 359 0 1 3 3 1 1 1 4 7 4 10 16 21 26 29 35 38 41 43 44 45 42 43 49 46
203 101 244 106 168 166 162 157 137 64 3 2 356 340 341 340 354 359 359 360 0 4 7 4 1 1 5 10 12 11 19 21 27 31 32 39 45 35 42 43 43 45 47 49
135 116 115 126 140 153 165 162 174 326 355 3 352 349 343 337 343 349 353 355 1 4 4 4 5 6 9 13 17 22 28 29 29 35 39 41 44 47 47 38 48 50 49 49
133 128 111 149 159 146 148 154 10 18 12 7 356 358 350 344 335 344 349 353 356 360 359 0 6 8 9 14 17 18 29 34 39 46 48 47 49 50 50 50 49 52 57 59
124 123 151 152 142 140 138 152 321 341 348 347 356 360 358 356 353 353 349 350 350 354 356 1 6 10 9 13 16 18 25 30 39 44 51 50 51 53 54 54 58 59 60 61
131 126 128 132 132 130 126 33 315 343 360 357 2 5 8 17 15 1 349 347 351 355 1 6 6 6 9 14 12 12 16 27 35 36 41 46 48 49 52 53 56 62 67 67
134 132 144 148 151 131 113 85 75 46 27 31 19 358 15 14 7 357 358 355 357 359 0 2 6 7 10 14 16 13 14 19 35 39 44 47 50 51 55 58 60 59 64 64
126 121 121 147 154 144 117 92 79 75 82 35 7 29 49 28 12 3 1 6 3 360 360 8 8 11 11 7 14 15 20 24 33 41 44 49 54 56 59 62 66 66 64 65
116 118 120 121 123 130 127 127 112 89 92 86 78 75 45 22 18 12 9 9 12 9 10 14 11 12 12 12 17 12 16 21 27 34 40 46 49 59 63 64 65 67 69 68
122 125 131 132 132 126 120 116 104 96 109 101 86 61 41 21 11 9 17 14 13 8 7 7 9 11 13 12 13 8 12 18 27 28 34 34 41 52 57 58 62 63 64 70
138 135 131 123 118 113 113 111 109 110 104 90 70 48 32 31 35 40 35 19 12 16 15 10 11 10 17 22 24 22 24 25 29 31 29 27 27 35 43 48 50 58 69 79
145 139 131 126 119 114 107 104 101 98 95 85 71 61 50 37 26 11 16 31 9 18 18 17 17 15 16 13 16 20 27 29 30 29 24 22 23 26 28 32 35 41 52 81
144 139 135 131 126 123 115 108 101 90 81 78 74 68 60 52 44 37 17 14 17 20 17 19 18 16 16 19 26 26 24 25 23 21 21 19 24 27 27 26 26 23 21 315
149 145 140 135 132 132 127 119 115 103 78 70 56 47 66 44 14 26 17 10 13 13 14 16 15 14 16 23 27 27 27 27 21 18 13 10 10 10 12 10 15 17 21 20
152 149 147 147 140 150 156 150 139 126 76 70 36 34 37 31 36 11 15 9 13 17 13 12 10 12 19 22 23 26 24 21 28 24 19 14 10 3 358 353 353 351 350 349
152 153 157 158 161 152 157 152 165 155 132 102 79 56 34 29 21 17 4 8 8 12 16 18 20 18 16 13 12 13 11 10 11 12 14 12 8 3 0 358 356 358 354 339
156 156 151 148 149 150 151 155 156 157 147 135 118 50 31 26 16 15 13 10 9 10 9 11 13 17 16 15 10 7 6 359 357 0 360 1 359 353 348 343 335 331 327 321